Kulusuk, Greenland

11:04 PM -02 on May 25, 2018 (GMT -0200)
Kulusuk

Weather History for BGKK - December, 2013

Change the Weather History Date:

Tuesday, December 10, 2013

  Actual Average Record
Temperature  
Mean Temperature 27 °F -  
Max Temperature 31 °F 23 °F 37 °F (2016)
Min Temperature 21 °F 19 °F 14 °F (1996)
Degree Days  
Heating Degree Days 38    
Moisture  
Dew Point 19 °F    
Average Humidity 68    
Maximum Humidity 86    
Minimum Humidity 43    
Precipitation  
Precipitation 0.00 in - - ()
Sea Level Pressure  
Sea Level Pressure 29.16 in    
Wind  
Wind Speed 18 mph ()    
Max Wind Speed 31 mph    
Max Gust Speed 46 mph    
Visibility 4.8 miles    
Events Snow    
Averages and records for this station are not official NWS values.
T = Trace of Precipitation, MM = Missing Value Source: Averaged Metar Reports

Daily Weather History Graph

Daily Weather History Graph

Search for Another Location

Airport or City:

Astronomy

Dec. 10, 2013 Rise Set
Actual Time 9:35 AM -03 1:07 PM -03
Civil Twilight 8:05 AM -03 2:36 PM -03
Nautical Twilight 6:52 AM -03 3:50 PM -03
Astronomical Twilight 5:49 AM -03 4:53 PM -03
Moon 11:42 AM -03 (12/10) No Moon Set
Length of Visible Light 6h 30m
Length of Day
3h 32m
First Quarter, 60% of the Moon is Illuminated
Dec 10
First Quarter
Dec 17
Full
Dec 25
Last Quarter
Jan 1
New
Jan 8
First Quarter

Hourly Weather History & Observations

Time (-03) Temp. Windchill Dew Point Humidity Pressure Visibility Wind Dir Wind Speed Gust Speed Precip Events Conditions
12:00 AM 29 °F - 21 °F 63% 29.03 in - ENE 20.7 mph - -   Partly Cloudy
12:20 AM 28.4 °F 14.7 °F 23.0 °F 80% 29.00 in - ENE 21.9 mph - N/A   Mostly Cloudy
12:50 AM 28.4 °F 12.5 °F 23.0 °F 80% 29.00 in - East 31.1 mph 43.7 mph N/A   Mostly Cloudy
1:20 AM 28.4 °F 12.7 °F 23.0 °F 80% 29.00 in - ENE 29.9 mph 46.0 mph N/A   Mostly Cloudy
1:50 AM 28.4 °F 13.8 °F 23.0 °F 80% 29.03 in - ENE 25.3 mph - N/A   Scattered Clouds
2:20 AM 30.2 °F 17.1 °F 21.2 °F 69% 29.03 in - ENE 21.9 mph - N/A   Mostly Cloudy
2:50 AM 28.4 °F 14.1 °F 21.2 °F 74% 29.03 in - East 24.2 mph - N/A   Partly Cloudy
3:00 AM 29 °F - 19 °F 55% 29.05 in - East 23.0 mph - -   Scattered Clouds
3:20 AM 28.4 °F 13.3 °F 21.2 °F 74% 29.03 in - East 27.6 mph 43.7 mph N/A   Partly Cloudy
3:50 AM 28.4 °F 13.3 °F 21.2 °F 74% 29.06 in - ENE 27.6 mph 39.1 mph N/A   Mostly Cloudy
4:20 AM 28.4 °F 14.1 °F 21.2 °F 74% 29.06 in - ENE 24.2 mph - N/A   Mostly Cloudy
4:50 AM 28.4 °F 13.8 °F 19.4 °F 69% 29.06 in - East 25.3 mph 41.4 mph N/A   Mostly Cloudy
5:20 AM 28.4 °F 13.8 °F 19.4 °F 69% 29.06 in - East 25.3 mph 36.8 mph N/A   Mostly Cloudy
5:50 AM 30.2 °F 16.8 °F 19.4 °F 64% 29.09 in - East 23.0 mph - N/A   Partly Cloudy
6:00 AM 29 °F - 19 °F 54% 29.11 in - East 21.9 mph - -   Scattered Clouds
6:20 AM 30.2 °F 16.8 °F 21.2 °F 69% 29.09 in - East 23.0 mph 36.8 mph N/A   Scattered Clouds
6:50 AM 30.2 °F 19.3 °F 21.2 °F 69% 29.09 in - ENE 15.0 mph 31.1 mph N/A   Mostly Cloudy
7:20 AM 30.2 °F 19.8 °F 23.0 °F 75% 29.12 in - ENE 13.8 mph - N/A   Overcast
7:50 AM 28.4 °F 18.0 °F 24.8 °F 86% 29.12 in - East 12.7 mph - N/A   Overcast
8:50 AM 28.4 °F 20.4 °F 24.8 °F 86% 29.12 in 1.6 mi NE 8.1 mph - N/A Snow Light Snow
9:00 AM 28 °F - 25 °F 82% 29.13 in - NE 10.4 mph - -   Overcast
9:50 AM 30.2 °F 21.3 °F 24.8 °F 80% 29.12 in 1.6 mi NE 10.4 mph 24.2 mph N/A Snow Light Snow
10:50 AM 30.2 °F 19.3 °F 21.2 °F 69% 29.12 in 5.6 mi ENE 15.0 mph - N/A Snow Light Snow
11:50 AM 30.2 °F 16.5 °F 17.6 °F 60% 29.12 in 6.2 mi ENE 24.2 mph 41.4 mph N/A   Mostly Cloudy
12:00 PM 29 °F - 17 °F 48% 29.15 in - East 23.0 mph - -   Partly Cloudy
12:50 PM 28.4 °F 14.4 °F 19.4 °F 69% 29.15 in 6.2 mi ENE 23.0 mph - N/A Snow Low Drifting Snow
1:50 PM 28.4 °F 13.3 °F 17.6 °F 64% 29.18 in 6.2 mi ENE 27.6 mph - N/A Snow Low Drifting Snow
2:50 PM 30.2 °F 17.1 °F 17.6 °F 60% 29.18 in 6.2 mi ENE 21.9 mph - N/A Snow Low Drifting Snow
3:00 PM 29 °F - 16 °F 46% 29.20 in - ENE 19.6 mph - -   Partly Cloudy
3:50 PM 28.4 °F 16.6 °F 19.4 °F 69% 29.21 in - ENE 16.1 mph - N/A   Unknown
4:20 PM 28.4 °F 18.0 °F 17.6 °F 64% 29.21 in - ENE 12.7 mph - N/A   Partly Cloudy
4:50 PM 30.2 °F 20.8 °F 17.6 °F 60% 29.21 in - ENE 11.5 mph - N/A   Partly Cloudy
5:20 PM 30.2 °F 20.8 °F 17.6 °F 60% 29.21 in - ENE 11.5 mph - N/A   Unknown
5:50 PM 30.2 °F 20.8 °F 17.6 °F 60% 29.24 in - East 11.5 mph - N/A   Unknown
6:00 PM 29 °F - 15 °F 43% 29.25 in - East 11.5 mph - -  
6:20 PM 28.4 °F 18.0 °F 17.6 °F 64% 29.24 in - East 12.7 mph - N/A   Unknown
6:50 PM 26.6 °F 15.7 °F 17.6 °F 69% 29.27 in - East 12.7 mph - N/A   Unknown
7:20 PM 26.6 °F 15.2 °F 17.6 °F 69% 29.27 in - East 13.8 mph - N/A   Unknown
7:50 PM 26.6 °F 14.7 °F 15.8 °F 64% 29.27 in - East 15.0 mph - N/A   Unknown
8:20 PM 24.8 °F 12.4 °F 15.8 °F 69% 29.30 in - East 15.0 mph - N/A   Partly Cloudy
8:50 PM 24.8 °F 11.9 °F 15.8 °F 69% 29.30 in - East 16.1 mph - N/A   Partly Cloudy
9:00 PM 25 °F - 14 °F 51% 29.31 in - East 16.1 mph - -   Partly Cloudy
9:20 PM 24.8 °F 11.1 °F 15.8 °F 69% 29.30 in - East 18.4 mph - N/A   Partly Cloudy
9:50 PM 26.6 °F 14.3 °F 15.8 °F 64% 29.30 in - East 16.1 mph - N/A   Partly Cloudy
10:20 PM 24.8 °F 12.9 °F 15.8 °F 69% 29.30 in - East 13.8 mph - N/A   Unknown
10:50 PM 26.6 °F 16.2 °F 15.8 °F 64% 29.30 in - East 11.5 mph - N/A   Unknown
11:20 PM 23.0 °F 13.9 °F 14.0 °F 68% 29.30 in - ENE 8.1 mph - N/A   Unknown
11:50 PM 21.2 °F 16.4 °F 14.0 °F 74% 29.33 in - East 3.5 mph - N/A   Unknown